Regional Weather Roundup
Issued by NWS Northern Indiana

Home | Current Version | Previous Version | Text Only | Print | Product List | Glossary Off
Versions: 1 2 3 4 5 6 7 8 9 10 11 12 13 14 15 16 17 18 19 20 21 22 23 24 25 26 27 28 29 30 31 32 33 34 35 36 37 38 39 40 41 42 43 44 45 46 47 48 49 50

000
ASUS43 KIWX 270500
RWRIWX

KIWX WEATHER ROUNDUP
NATIONAL WEATHER SERVICE NORTHERN INDIANA
100 AM EDT WED MAY 27 2015

NOTE: "FAIR" INDICATES FEW OR NO CLOUDS BELOW 12,000 FEET WITH NO
SIGNIFICANT WEATHER AND/OR OBSTRUCTIONS TO VISIBILITY.

* THESE STATIONS ARE NOT UNDER NWS QUALITY CONTROL. THEY ALSO MAY NOT
  REPORT WEATHER SUCH AS PRECIPITATION OR FOG.

INZ001>027-270600-
NORTHERN INDIANA

CITY           SKY/WX    TMP DP  RH WIND       PRES   REMARKS
SOUTH BEND     PTCLDY    67  61  81 SW10      29.91F
GOSHEN         PTCLDY    66  60  81 SW10      29.93S
ANGOLA*        PTCLDY    68  59  73 SW8       29.94S
FORT WAYNE     MOCLDY    68  60  75 SW9       29.96S
PERU/GRISSOM   PTCLDY    66  59  79 SW9       29.95F

$$
INZ028>050-270600-
CENTRAL INDIANA

CITY           SKY/WX    TMP DP  RH WIND       PRES   REMARKS
LAFAYETTE      CLEAR     66  58  75 S7        29.95F
KOKOMO*        PTCLDY    70  57  64 SW14      29.97S
MUNCIE*        PTCLDY    69  62  78 SW7       29.98F
INDIANAPOLIS   MOCLDY    67  58  72 SW10      29.99S

$$
MIZ043>046-050>051-056>058-064>065-071>073-077>080-270600-
SOUTHWEST LOWER MICHIGAN

CITY           SKY/WX    TMP DP  RH WIND       PRES   REMARKS
BATTLE CREEK   CLEAR     67  60  78 SW14      29.91R
BENTON HARBOR  PTCLDY    66  61  84 S9        29.87F
COLDWATER*     PTCLDY    65  58  78 SW7       29.93S
HILLSDALE*     MOCLDY    68  63  83 SW8       29.94S
HOLLAND        PTCLDY    68  60  75 SW18G25   29.86R
GRAND RAPIDS   PTCLDY    67  61  81 SW10      29.85R
KALAMAZOO      CLEAR     67  60  78 SW9       29.90R
STURGIS*       PTCLDY    66  61  82 SW10      29.92F
THREE RIVERS*  FAIR      66  60  81 SW8       29.92S

$$
OHZ001>008-015>018-024>025-270600-
NORTHWEST OHIO

CITY           SKY/WX    TMP DP  RH WIND       PRES   REMARKS
DEFIANCE       CLOUDY    71  64  78 SW8       29.94F
FINDLAY        CLOUDY    70  66  87 S14       29.97S
TOLEDO EXPRESS CLOUDY    69  65  86 SW10G17   29.93S
TOLEDO METCALF CLOUDY    71  64  78 SW12      29.94F
LIMA           CLOUDY    69  65  86 SW12      29.99R

$$
AND FOR LAKE MICHIGAN COASTAL AND OPEN LAKE BUOY OBSERVATIONS

STATION/POSITION TEMP    WIND        PRES    VSBY  WAVE
                 AIR SEA DIR/SP/G                  HT/PER
                 (F)     (DEG/KT/KT) (MB)    (MI)  (FT/S)
MICHIGAN CITY     68     180/ 14/ 17   N/A
BURNS HARBOR      69     190/ 15/ 19 1012.2F
SAINT JOSEPH      69     180/ 12/ 22 1011.9F
SOUTH LAKE BUOY   47 38  190/ 14/ 16 1010.3F         2/ 4
4 MI NW BRIDGMAN  62 55  230/ 12/ 12   N/A           3/ 4
MICHIGAN CITY     63 52  210/ 12/ 16   N/A           2/ 3

$$
&&



USA.gov is the U.S. government's official web portal to all federal, state and local government web resources and services.